M I D A S
Marine Information and Data Acquisition System
Tripno 524 of the Zeeleeuw from 2003-06-25 06:54:58 to 2003-06-25 11:03:42
Back to CruiseResearch ActivitiesStationsMapUnderway DataData graphs

EquipmentUnitsComments
TimeDGPSUTC
LatitudeDGPSDM.mWGS84
LongitudeDGPSDM.mWGS84
SpeedMeteo Stationm/sRelative wind speed
DirectionMeteo StationdegRelative wind direction
TemperatureMeteo Stationdeg CelciusAir temperature
PressureMeteo StationPaAtmospheric pressure
HumidityMeteo Station%Relative humidity
Missing or incorrect values are displayed as -999
Metereological data collected by the RV Zeeleeuw from 2003-06-25 06:54:58 to 2003-06-25 11:03:42
                                                                                    Next 1000 lines
Time Latitude Longitude Speed Direction Temperature Pressure Humidity
2003-06-25 06:55:06 51°13.6 2°56.1 2.4 317 16.4 102220 72
2003-06-25 06:55:12 51°13.6 2°56.1 3.1 329 16.4 102220 72
2003-06-25 06:55:16 51°13.6 2°56.09 2.5 324 16.4 102220 72
2003-06-25 06:55:22 51°13.6 2°56.09 2.2 316 16.4 102220 72
2003-06-25 06:55:28 51°13.61 2°56.09 1.8 310 16.4 102220 72
2003-06-25 06:55:32 51°13.61 2°56.08 3 298 16.4 102220 72
2003-06-25 06:55:38 51°13.61 2°56.08 2.7 294 16.4 102220 72
2003-06-25 06:55:44 51°13.61 2°56.07 2.3 325 16.4 102220 72
2003-06-25 06:55:48 51°13.61 2°56.07 2.1 302 16.4 102220 72
2003-06-25 06:55:54 51°13.61 2°56.06 2.4 227 16.4 102220 72
2003-06-25 06:56:00 51°13.61 2°56.06 1.7 321 16.4 102220 72
2003-06-25 06:56:04 51°13.62 2°56.05 1.8 330 16.4 102220 72
2003-06-25 06:56:10 51°13.62 2°56.05 1.5 326 16.4 102220 72
2003-06-25 06:56:14 51°13.62 2°56.04 1.7 308 16.4 102220 72
2003-06-25 06:56:20 51°13.62 2°56.03 1.5 296 16.4 102220 72
2003-06-25 06:56:26 51°13.62 2°56.03 1.6 277 16.4 102220 72
2003-06-25 06:56:30 51°13.62 2°56.02 1.7 305 16.4 102220 72
2003-06-25 06:56:36 51°13.63 2°56.01 2.1 333 16.5 102220 72
2003-06-25 06:56:40 51°13.63 2°56.01 2.4 319 16.5 102220 72
2003-06-25 06:56:46 51°13.63 2°56 2.4 319 16.5 102220 72
2003-06-25 06:56:52 51°13.63 2°55.99 2.3 335 16.5 102220 72
2003-06-25 06:56:56 51°13.63 2°55.99 1.8 325 16.5 102210 72
2003-06-25 06:57:02 51°13.63 2°55.98 1.6 333 16.5 102210 72
2003-06-25 06:57:06 51°13.64 2°55.97 1.2 318 16.5 102210 72
2003-06-25 06:57:12 51°13.64 2°55.96 0.8 228 16.5 102210 72
2003-06-25 06:57:16 51°13.64 2°55.95 1.6 270 16.5 102210 72
2003-06-25 06:57:22 51°13.64 2°55.94 2 253 16.5 102210 72
2003-06-25 06:57:26 51°13.64 2°55.94 1.9 254 16.5 102220 72
2003-06-25 06:57:32 51°13.65 2°55.93 1.3 296 16.5 102220 72
2003-06-25 06:57:36 51°13.65 2°55.92 0.6 264 16.5 102220 72
2003-06-25 06:57:42 51°13.65 2°55.91 1 301 16.5 102220 72
2003-06-25 06:57:46 51°13.65 2°55.9 2.6 310 16.5 102210 72
2003-06-25 06:57:52 51°13.66 2°55.89 3 43 16.5 102210 72
2003-06-25 06:57:56 51°13.66 2°55.88 2.8 313 16.5 102220 72
2003-06-25 06:58:02 51°13.66 2°55.87 1.8 295 16.5 102220 72
2003-06-25 06:58:06 51°13.66 2°55.86 2 299 16.5 102210 72
2003-06-25 06:58:12 51°13.66 2°55.85 2.6 308 16.5 102210 72
2003-06-25 06:58:16 51°13.67 2°55.85 2.1 300 16.6 102210 72
2003-06-25 06:58:20 51°13.67 2°55.84 2.4 327 16.6 102210 72
2003-06-25 06:58:26 51°13.67 2°55.83 3.2 318 16.5 102210 72
2003-06-25 06:58:32 51°13.67 2°55.82 3.1 315 16.5 102210 72
2003-06-25 06:58:36 51°13.67 2°55.82 3 320 16.6 102210 72
2003-06-25 06:58:40 51°13.67 2°55.81 3.6 234 16.6 102210 72
2003-06-25 06:58:44 51°13.67 2°55.8 3 326 16.6 102210 72
2003-06-25 06:58:50 51°13.68 2°55.8 3 331 16.6 102210 72
2003-06-25 06:58:54 51°13.68 2°55.79 2.7 338 16.6 102210 72
2003-06-25 06:58:58 51°13.68 2°55.79 2.9 351 16.6 102210 72
2003-06-25 06:59:02 51°13.68 2°55.78 2.5 356 16.6 102210 72
2003-06-25 06:59:08 51°13.68 2°55.78 2.3 358 16.6 102210 72
2003-06-25 06:59:12 51°13.68 2°55.78 2 7 16.6 102220 72
2003-06-25 06:59:16 51°13.68 2°55.77 1.8 5 16.6 102220 72
2003-06-25 06:59:20 51°13.68 2°55.77 2.6 359 16.6 102220 72
2003-06-25 06:59:26 51°13.68 2°55.77 3   16.6 102220 72
2003-06-25 06:59:32 51°13.68 2°55.76 3.3 4 16.5 102210 71
2003-06-25 06:59:36 51°13.68 2°55.76 3.2 18 16.5 102210 71
2003-06-25 06:59:40 51°13.68 2°55.76 3 16 16.5 102210 71
2003-06-25 06:59:46 51°13.68 2°55.75 3.6 23 16.5 102210 71
2003-06-25 06:59:52 51°13.68 2°55.75 3.8 27 16.5 102210 71
2003-06-25 06:59:58 51°13.68 2°55.75 4.5 33 16.5 102210 71
2003-06-25 07:00:04 51°13.68 2°55.75 4.2 33 16.5 102210 71
2003-06-25 07:00:08 51°13.68 2°55.75 4 27 16.5 102210 71
2003-06-25 07:00:14 51°13.69 2°55.75 3.8 32 16.4 102210 71
2003-06-25 07:00:18 51°13.69 2°55.75 4.4 38 16.4 102210 71
2003-06-25 07:00:24 51°13.69 2°55.75 3.9 39 16.4 102210 71
2003-06-25 07:00:30 51°13.69 2°55.75 3.9 38 16.4 102210 71
2003-06-25 07:00:34 51°13.69 2°55.75 3.3 39 16.3 102210 71
2003-06-25 07:00:38 51°13.69 2°55.75 3.5 56 16.3 102210 71
2003-06-25 07:00:44 51°13.69 2°55.76 3.8 65 16.3 102210 72
2003-06-25 07:00:48 51°13.7 2°55.76 3.4 77 16.3 102210 72
2003-06-25 07:00:52 51°13.7 2°55.76 4.8 87 16.3 102210 72
2003-06-25 07:00:56 51°13.7 2°55.76 3.2 82 16.3 102210 72
2003-06-25 07:01:02 51°13.71 2°55.76 3.6 86 16.3 102210 72
2003-06-25 07:01:06 51°13.71 2°55.76 2.6 71 16.3 102210 72
2003-06-25 07:01:12 51°13.72 2°55.76 2.4 80 16.2 102210 73
2003-06-25 07:01:16 51°13.72 2°55.76 3 92 16.2 102210 73
2003-06-25 07:01:20 51°13.72 2°55.76 2.7 93 16.2 102210 73
2003-06-25 07:01:26 51°13.73 2°55.75 2.6 94 16.2 102210 73
2003-06-25 07:01:32 51°13.74 2°55.74 1.7 73 16.2 102210 73
2003-06-25 07:01:36 51°13.74 2°55.74 3.1 56 16.2 102210 73
2003-06-25 07:01:42 51°13.75 2°55.73 2.7 70 16.2 102210 74
2003-06-25 07:01:46 51°13.75 2°55.72 2.3 73 16.2 102210 74
2003-06-25 07:01:52 51°13.76 2°55.71 2 74 16.2 102210 74
2003-06-25 07:01:56 51°13.76 2°55.71 2 76 16.2 102210 74
2003-06-25 07:02:02 51°13.77 2°55.7 2.6 35 16.2 102210 74
2003-06-25 07:02:06 51°13.77 2°55.69 4.4 68 16.1 102210 74
2003-06-25 07:02:12 51°13.78 2°55.69 4.1 67 16.1 102210 74
2003-06-25 07:02:16 51°13.78 2°55.68 4.8 69 16.1 102210 74
2003-06-25 07:02:22 51°13.79 2°55.67 3.5 69 16.1 102210 74
2003-06-25 07:02:26 51°13.8 2°55.67 4.5 74 16.1 102210 74
2003-06-25 07:02:32 51°13.8 2°55.66 4.3 64 16.1 102210 74
2003-06-25 07:02:36 51°13.81 2°55.65 4.2 70 16.1 102210 74
2003-06-25 07:02:42 51°13.81 2°55.64 2.8 73 16.1 102210 73
2003-06-25 07:02:46 51°13.82 2°55.64 2.3 55 16.1 102210 73
2003-06-25 07:02:52 51°13.83 2°55.63 2.7 42 16 102210 73
2003-06-25 07:02:56 51°13.83 2°55.63 3.3 32 16 102210 73
2003-06-25 07:03:00 51°13.84 2°55.62 4.6 51 16 102210 73
2003-06-25 07:03:04 51°13.84 2°55.62 3.7 81 16 102210 73
2003-06-25 07:03:12 51°13.85 2°55.61 3.8 60 16 102210 73
2003-06-25 07:03:16 51°13.86 2°55.61 3.7 58 16 102210 73
2003-06-25 07:03:22 51°13.86 2°55.6 3.8 73 16 102210 73
2003-06-25 07:03:26 51°13.87 2°55.6 4.4 59 16 102210 73
2003-06-25 07:03:32 51°13.88 2°55.59 4.6 75 16 102210 73
2003-06-25 07:03:36 51°13.88 2°55.59 3.7 62 16 102210 73
2003-06-25 07:03:40 51°13.89 2°55.59 4.2 68 15.9 102210 73
2003-06-25 07:03:46 51°13.89 2°55.58 5 69 15.9 102210 73
2003-06-25 07:03:52 51°13.9 2°55.58 5.1 68 15.9 102210 73
2003-06-25 07:03:56 51°13.91 2°55.57 5.2 64 15.9 102210 73
2003-06-25 07:04:02 51°13.91 2°55.57 4.6 80 15.9 102210 74
2003-06-25 07:04:06 51°13.92 2°55.56 6 83 15.9 102210 74
2003-06-25 07:04:12 51°13.93 2°55.56 4.9 91 15.9 102200 74
2003-06-25 07:04:16 51°13.93 2°55.55 4.5 79 15.9 102200 74
2003-06-25 07:04:20 51°13.94 2°55.55 5 85 15.9 102200 74
2003-06-25 07:04:26 51°13.94 2°55.54 3.4 79 15.9 102200 74
2003-06-25 07:04:32 51°13.95 2°55.54 3.4 76 15.8 102200 74
2003-06-25 07:04:36 51°13.96 2°55.53 4.6 89 15.8 102200 74
2003-06-25 07:04:42 51°13.97 2°55.53 4 78 15.8 102200 74
2003-06-25 07:04:46 51°13.97 2°55.52 3.7 90 15.8 102210 74
2003-06-25 07:04:52 51°13.98 2°55.52 4.3 102 15.8 102210 74
2003-06-25 07:04:56 51°13.99 2°55.51 3.5 80 15.8 102210 74
2003-06-25 07:05:02 51°14 2°55.51 3.9 61 15.8 102210 74
2003-06-25 07:05:06 51°14 2°55.5 4.7 71 15.8 102210 74
2003-06-25 07:05:12 51°14.01 2°55.5 4.1 61 15.8 102210 74
2003-06-25 07:05:16 51°14.02 2°55.49 5.8 42 15.8 102210 74
2003-06-25 07:05:22 51°14.03 2°55.48 5.1 71 15.8 102210 74
2003-06-25 07:05:26 51°14.03 2°55.48 6 61 15.8 102210 74
2003-06-25 07:05:32 51°14.04 2°55.47 5.9 65 15.7 102200 74
2003-06-25 07:05:36 51°14.05 2°55.47 4.6 76 15.7 102200 74
2003-06-25 07:05:42 51°14.06 2°55.46 5.3 76 15.7 102200 74
2003-06-25 07:05:46 51°14.07 2°55.45 5.2 79 15.7 102200 74
2003-06-25 07:05:52 51°14.08 2°55.45 4.9 79 15.7 102200 74
2003-06-25 07:05:56 51°14.09 2°55.44 4.4 75 15.7 102200 74
2003-06-25 07:06:00 51°14.09 2°55.44 4 74 15.7 102200 74
2003-06-25 07:06:04 51°14.1 2°55.43 4.9 66 15.7 102200 74
2003-06-25 07:06:12 51°14.11 2°55.42 4.1 66 15.7 102200 74
2003-06-25 07:06:16 51°14.12 2°55.42 3.6 67 15.7 102200 74
2003-06-25 07:06:22 51°14.13 2°55.41 2.8 84 15.6 102200 74
2003-06-25 07:06:26 51°14.14 2°55.4 2.3 57 15.6 102200 74
2003-06-25 07:06:32 51°14.15 2°55.39 2.5 76 15.6 102200 75
2003-06-25 07:06:36 51°14.16 2°55.39 2.7 70 15.6 102200 75
2003-06-25 07:06:40 51°14.16 2°55.38 3.5 54 15.6 102210 75
2003-06-25 07:06:46 51°14.17 2°55.37 3.1 60 15.6 102210 75
2003-06-25 07:06:52 51°14.18 2°55.36 4.4 52 15.6 102200 75
2003-06-25 07:06:56 51°14.19 2°55.35 4 62 15.6 102200 75
2003-06-25 07:07:02 51°14.2 2°55.34 3.9 61 15.6 102200 75
2003-06-25 07:07:06 51°14.21 2°55.33 5 74 15.6 102200 76
2003-06-25 07:07:12 51°14.22 2°55.32 5.1 64 15.6 102200 76
2003-06-25 07:07:16 51°14.22 2°55.31 3.7 57 15.6 102200 76
2003-06-25 07:07:22 51°14.23 2°55.3 5.4 79 15.6 102200 75
2003-06-25 07:07:26 51°14.24 2°55.29 5.1 68 15.6 102200 75
2003-06-25 07:07:32 51°14.25 2°55.28 5.9 54 15.6 102200 75
2003-06-25 07:07:36 51°14.26 2°55.27 5.1 62 15.6 102200 75
2003-06-25 07:07:42 51°14.27 2°55.25 4.8 62 15.6 102200 76
2003-06-25 07:07:46 51°14.27 2°55.24 4.8 71 15.6 102200 76
2003-06-25 07:07:52 51°14.28 2°55.22 5.3 66 15.6 102200 76
2003-06-25 07:07:56 51°14.29 2°55.21 4.7 64 15.6 102200 76
2003-06-25 07:08:02 51°14.3 2°55.19 5.4 56 15.7 102200 76
2003-06-25 07:08:06 51°14.3 2°55.18 5.1 71 15.7 102200 76
2003-06-25 07:08:12 51°14.31 2°55.16 5.8 74 15.7 102200 76
2003-06-25 07:08:16 51°14.32 2°55.14 4.5 74 15.7 102200 76
2003-06-25 07:08:22 51°14.33 2°55.12 4.3 67 15.6 102200 76
2003-06-25 07:08:26 51°14.34 2°55.11 5.3 78 15.6 102200 76
2003-06-25 07:08:32 51°14.35 2°55.09 5 74 15.6 102200 76
2003-06-25 07:08:36 51°14.35 2°55.08 5.2 50 15.6 102200 76
2003-06-25 07:08:42 51°14.37 2°55.06 4.8 49 15.6 102200 76
2003-06-25 07:08:44 51°14.37 2°55.05 5.7 66 15.6 102200 76
2003-06-25 07:08:52 51°14.39 2°55.02 4.8 75 15.6 102200 76
2003-06-25 07:08:56 51°14.39 2°55.01 6.5 66 15.6 102200 76
2003-06-25 07:09:02 51°14.41 2°54.99 5.7 68 15.6 102200 76
2003-06-25 07:09:06 51°14.42 2°54.98 6.3 66 15.6 102200 76
2003-06-25 07:09:12 51°14.43 2°54.96 6.1 61 15.6 102200 76
2003-06-25 07:09:16 51°14.44 2°54.95 7 58 15.6 102200 76
2003-06-25 07:09:20 51°14.45 2°54.94 7 56 15.6 102190 77
2003-06-25 07:09:26 51°14.47 2°54.92 6.9 52 15.6 102190 77
2003-06-25 07:09:32 51°14.48 2°54.9 7.2 61 15.5 102190 77
2003-06-25 07:09:36 51°14.49 2°54.89 6.5 66 15.5 102190 77
2003-06-25 07:09:42 51°14.51 2°54.88 5.9 63 15.5 102190 76
2003-06-25 07:09:46 51°14.52 2°54.87 5.6 63 15.5 102190 76
2003-06-25 07:09:52 51°14.54 2°54.85 6 54 15.5 102200 76
2003-06-25 07:09:56 51°14.55 2°54.84 5.9 67 15.5 102200 76
2003-06-25 07:10:02 51°14.57 2°54.82 6.2 60 15.5 102200 76
2003-06-25 07:10:06 51°14.58 2°54.81 5.4 68 15.5 102200 76
2003-06-25 07:10:12 51°14.6 2°54.79 5.5 69 15.4 102190 76
2003-06-25 07:10:16 51°14.61 2°54.78 5.5 54 15.4 102190 76
2003-06-25 07:10:22 51°14.62 2°54.76 5.7 61 15.4 102190 76
2003-06-25 07:10:26 51°14.64 2°54.75 6.8 66 15.4 102190 76
2003-06-25 07:10:32 51°14.65 2°54.73 6.5 66 15.4 102200 76
2003-06-25 07:10:36 51°14.66 2°54.72 6.8 59 15.4 102200 76
2003-06-25 07:10:42 51°14.68 2°54.7 7.3 60 15.4 102200 77
2003-06-25 07:10:46 51°14.69 2°54.69 7 67 15.4 102200 77
2003-06-25 07:10:52 51°14.71 2°54.67 6.8 65 15.4 102200 77
2003-06-25 07:10:56 51°14.72 2°54.66 7.4 64 15.4 102200 77
2003-06-25 07:11:02 51°14.74 2°54.64 7.3 63 15.4 102200 77
2003-06-25 07:11:06 51°14.75 2°54.63 7.7 65 15.4 102200 77
2003-06-25 07:11:12 51°14.77 2°54.61 6.9 70 15.4 102200 77
2003-06-25 07:11:16 51°14.78 2°54.6 6.6 65 15.4 102200 77
2003-06-25 07:11:20 51°14.79 2°54.59 6.8 55 15.4 102190 77
2003-06-25 07:11:24 51°14.81 2°54.58 6.9 59 15.4 102190 77
2003-06-25 07:11:32 51°14.83 2°54.55 6.5 59 15.4 102200 78
2003-06-25 07:11:36 51°14.84 2°54.54 6.5 57 15.4 102200 78
2003-06-25 07:11:42 51°14.86 2°54.52 6.5 58 15.4 102190 77
2003-06-25 07:11:46 51°14.87 2°54.51 5.8 51 15.4 102190 77
2003-06-25 07:11:52 51°14.89 2°54.49 5.9 55 15.4 102200 77
2003-06-25 07:11:56 51°14.9 2°54.48 6.9 54 15.4 102200 77
2003-06-25 07:12:02 51°14.92 2°54.46 6.4 56 15.3 102200 76
2003-06-25 07:12:06 51°14.93 2°54.45 6.4 56 15.3 102200 76
2003-06-25 07:12:12 51°14.95 2°54.43 6.2 49 15.3 102210 76
2003-06-25 07:12:16 51°14.96 2°54.42 6.1 53 15.3 102210 76
2003-06-25 07:12:20 51°14.97 2°54.4 6.1 55 15.3 102200 76
2003-06-25 07:12:26 51°14.99 2°54.38 5.8 51 15.3 102200 76
2003-06-25 07:12:32 51°15.01 2°54.36 6.5 52 15.3 102200 76
2003-06-25 07:12:36 51°15.02 2°54.35 7.7 56 15.3 102200 76
2003-06-25 07:12:42 51°15.04 2°54.33 7.9 65 15.3 102200 76
2003-06-25 07:12:46 51°15.05 2°54.32 7.5 59 15.3 102200 76
2003-06-25 07:12:52 51°15.07 2°54.3 7.6 62 15.3 102200 77
2003-06-25 07:12:56 51°15.08 2°54.29 6.4 57 15.3 102200 77
2003-06-25 07:13:02 51°15.1 2°54.27 7.7 54 15.4 102210 77
2003-06-25 07:13:06 51°15.12 2°54.26 7.2 62 15.4 102210 77
2003-06-25 07:13:12 51°15.13 2°54.24 7.3 63 15.4 102200 78
2003-06-25 07:13:16 51°15.15 2°54.22 7 54 15.4 102200 78
2003-06-25 07:13:22 51°15.17 2°54.2 7.1 47 15.4 102200 78
2003-06-25 07:13:26 51°15.18 2°54.19 7.6 55 15.4 102210 78
2003-06-25 07:13:32 51°15.2 2°54.17 6.4 52 15.4 102200 77
2003-06-25 07:13:36 51°15.21 2°54.16 7 55 15.4 102200 77
2003-06-25 07:13:42 51°15.23 2°54.14 6.8 44 15.4 102200 77
2003-06-25 07:13:46 51°15.24 2°54.13 7.8 45 15.4 102200 77
2003-06-25 07:13:52 51°15.26 2°54.11 7.4 52 15.4 102200 77
2003-06-25 07:13:56 51°15.27 2°54.09 7.7 49 15.4 102200 77
2003-06-25 07:14:02 51°15.29 2°54.07 7.4 53 15.4 102210 77
2003-06-25 07:14:06 51°15.3 2°54.06 6.9 58 15.4 102210 77
2003-06-25 07:14:12 51°15.32 2°54.04 6.8 55 15.4 102200 77
2003-06-25 07:14:16 51°15.34 2°54.03 6.7 50 15.4 102200 77
2003-06-25 07:14:20 51°15.35 2°54.01 6.4 50 15.3 102200 77
2003-06-25 07:14:24 51°15.36 2°54 7.1 44 15.3 102200 77
2003-06-25 07:14:32 51°15.39 2°53.97 6.7 55 15.3 102210 77
2003-06-25 07:14:36 51°15.4 2°53.96 8.1 56 15.3 102210 77
2003-06-25 07:14:42 51°15.42 2°53.94 8.1 57 15.3 102210 77
2003-06-25 07:14:46 51°15.43 2°53.92 7.1 62 15.3 102210 77
2003-06-25 07:14:52 51°15.45 2°53.9 7.2 57 15.3 102210 77
2003-06-25 07:14:56 51°15.46 2°53.89 5.9 64 15.3 102210 77
2003-06-25 07:15:02 51°15.48 2°53.87 6.6 63 15.3 102200 77
2003-06-25 07:15:06 51°15.5 2°53.85 5.9 58 15.3 102200 77
2003-06-25 07:15:12 51°15.51 2°53.83 6.2 59 15.3 102210 77
2003-06-25 07:15:16 51°15.53 2°53.82 6.6 48 15.3 102210 77
2003-06-25 07:15:20 51°15.54 2°53.81 5.9 49 15.3 102210 77
2003-06-25 07:15:26 51°15.56 2°53.79 6.1 46 15.3 102210 77
2003-06-25 07:15:32 51°15.58 2°53.77 5.9 48 15.3 102210 76
2003-06-25 07:15:36 51°15.59 2°53.75 7.2 43 15.3 102210 76
2003-06-25 07:15:40 51°15.6 2°53.74 6.7 43 15.4 102210 77
2003-06-25 07:15:46 51°15.62 2°53.72 7.3 49 15.4 102210 77
2003-06-25 07:15:52 51°15.65 2°53.7 7 45 15.4 102200 78
2003-06-25 07:15:56 51°15.66 2°53.69 6.7 48 15.4 102200 78
2003-06-25 07:16:02 51°15.68 2°53.67 7.5 45 15.4 102210 77
2003-06-25 07:16:06 51°15.69 2°53.66 7.1 45 15.4 102210 77
2003-06-25 07:16:12 51°15.71 2°53.64 8.1 49 15.4 102200 77
2003-06-25 07:16:16 51°15.73 2°53.63 7.5 52 15.4 102200 77
2003-06-25 07:16:22 51°15.75 2°53.61 6.9 45 15.4 102210 77
2003-06-25 07:16:26 51°15.76 2°53.6 8 52 15.4 102210 77
2003-06-25 07:16:32 51°15.78 2°53.58 7.2 54 15.4 102210 77
2003-06-25 07:16:36 51°15.8 2°53.57 7.7 48 15.4 102210 77
2003-06-25 07:16:42 51°15.82 2°53.55 8 48 15.4 102210 78
2003-06-25 07:16:46 51°15.83 2°53.54 8.5 50 15.4 102210 78
2003-06-25 07:16:52 51°15.85 2°53.53 7.8 51 15.4 102200 77
2003-06-25 07:16:56 51°15.87 2°53.52 7.2 53 15.4 102200 77
2003-06-25 07:17:00 51°15.88 2°53.51 7.6 50 15.4 102210 77
2003-06-25 07:17:04 51°15.9 2°53.5 8.4 47 15.4 102210 77
2003-06-25 07:17:12 51°15.92 2°53.48 8.3 45 15.4 102190 77
2003-06-25 07:17:16 51°15.94 2°53.47 7.7 48 15.4 102190 77
2003-06-25 07:17:22 51°15.96 2°53.46 7.3 48 15.4 102210 77
2003-06-25 07:17:26 51°15.97 2°53.45 7.2 44 15.4 102210 77
2003-06-25 07:17:32 51°16 2°53.43 8.4 47 15.4 102190 77
2003-06-25 07:17:36 51°16.01 2°53.42 7.2 53 15.4 102190 77
2003-06-25 07:17:40 51°16.03 2°53.41 7.3 50 15.3 102210 76
2003-06-25 07:17:46 51°16.05 2°53.4 8.2 47 15.3 102210 76
2003-06-25 07:17:52 51°16.07 2°53.38 8.1 43 15.4 102200 77
2003-06-25 07:17:56 51°16.08 2°53.37 8.4 40 15.4 102200 77
2003-06-25 07:18:02 51°16.1 2°53.35 7.8 38 15.4 102200 77
2003-06-25 07:18:06 51°16.12 2°53.34 8.1 44 15.4 102210 77
2003-06-25 07:18:12 51°16.14 2°53.33 7.7 44 15.4 102200 77
2003-06-25 07:18:16 51°16.15 2°53.32 8.4 40 15.4 102200 77
2003-06-25 07:18:22 51°16.18 2°53.3 8.9 53 15.4 102200 77
2003-06-25 07:18:26 51°16.19 2°53.29 9.5 52 15.4 102200 77
2003-06-25 07:18:32 51°16.21 2°53.28 8.1 58 15.4 102200 77
2003-06-25 07:18:36 51°16.23 2°53.27 7.6 54 15.4 102200 77
2003-06-25 07:18:42 51°16.25 2°53.25 7.7 58 15.4 102200 78
2003-06-25 07:18:46 51°16.26 2°53.24 7 56 15.4 102200 78
2003-06-25 07:18:52 51°16.28 2°53.22 7.1 56 15.4 102200 78
2003-06-25 07:18:56 51°16.29 2°53.21 8.3 55 15.4 102200 78
2003-06-25 07:19:02 51°16.31 2°53.19 7.9 52 15.4 102200 78
2003-06-25 07:19:06 51°16.33 2°53.18 7.1 56 15.4 102200 78
2003-06-25 07:19:12 51°16.35 2°53.16 7.2 55 15.4 102210 78
2003-06-25 07:19:16 51°16.36 2°53.15 8.6 44 15.4 102210 78
2003-06-25 07:19:22 51°16.38 2°53.13 8.9 48 15.4 102190 78
2003-06-25 07:19:26 51°16.4 2°53.11 7.8 48 15.4 102190 78
2003-06-25 07:19:32 51°16.42 2°53.1 7.6 49 15.4 102210 78
2003-06-25 07:19:36 51°16.43 2°53.08 8.5 49 15.4 102210 78
2003-06-25 07:19:42 51°16.45 2°53.07 8.3 50 15.4 102200 78
2003-06-25 07:19:44 51°16.46 2°53.06 8 48 15.4 102200 78
2003-06-25 07:19:52 51°16.48 2°53.03 8.1 49 15.4 102200 78
2003-06-25 07:19:56 51°16.5 2°53.02 8.1 50 15.4 102200 78
2003-06-25 07:20:02 51°16.52 2°53 7.6 46 15.4 102200 78
2003-06-25 07:20:06 51°16.53 2°52.99 8.5 54 15.4 102200 78
2003-06-25 07:20:12 51°16.55 2°52.97 7.6 54 15.4 102200 78
2003-06-25 07:20:16 51°16.57 2°52.96 8 55 15.4 102200 78
2003-06-25 07:20:20 51°16.58 2°52.95 8.3 48 15.4 102200 78
2003-06-25 07:20:26 51°16.6 2°52.93 6.9 59 15.4 102200 78
2003-06-25 07:20:32 51°16.62 2°52.91 6.5 58 15.4 102200 78
2003-06-25 07:20:36 51°16.63 2°52.9 6.8 54 15.4 102200 78
2003-06-25 07:20:42 51°16.66 2°52.88 7.5 43 15.4 102200 78
2003-06-25 07:20:46 51°16.67 2°52.87 6.5 49 15.4 102200 78
2003-06-25 07:20:52 51°16.69 2°52.85 7 51 15.3 102210 77
2003-06-25 07:20:56 51°16.7 2°52.84 6.9 55 15.3 102210 77
2003-06-25 07:21:02 51°16.72 2°52.82 6.6 52 15.3 102210 78
2003-06-25 07:21:06 51°16.74 2°52.81 6.7 54 15.3 102210 78
2003-06-25 07:21:12 51°16.76 2°52.79 7.2 49 15.3 102210 78
2003-06-25 07:21:16 51°16.77 2°52.78 7.2 53 15.3 102210 78
2003-06-25 07:21:22 51°16.79 2°52.76 6.9 53 15.3 102210 78
2003-06-25 07:21:26 51°16.8 2°52.75 6.9 52 15.3 102210 78
2003-06-25 07:21:32 51°16.82 2°52.73 7.2 46 15.4 102200 78
2003-06-25 07:21:36 51°16.84 2°52.72 8.5 47 15.4 102200 78
2003-06-25 07:21:40 51°16.85 2°52.71 7.7 50 15.4 102210 78
2003-06-25 07:21:46 51°16.87 2°52.69 7.6 48 15.4 102210 78
2003-06-25 07:21:52 51°16.89 2°52.67 7.6 52 15.4 102210 78
2003-06-25 07:21:56 51°16.9 2°52.66 7.8 52 15.4 102210 78
2003-06-25 07:22:00 51°16.91 2°52.65 7.6 52 15.4 102210 78
2003-06-25 07:22:06 51°16.93 2°52.63 7.6 52 15.4 102210 78
2003-06-25 07:22:12 51°16.95 2°52.61 7.4 51 15.4 102210 78
2003-06-25 07:22:16 51°16.97 2°52.6 7.5 57 15.4 102210 78
2003-06-25 07:22:22 51°16.99 2°52.58 7.9 52 15.4 102210 78
2003-06-25 07:22:26 51°17 2°52.57 7.4 49 15.4 102210 78
2003-06-25 07:22:32 51°17.02 2°52.56 8.2 54 15.4 102210 78
2003-06-25 07:22:36 51°17.03 2°52.54 7.4 58 15.4 102210 78
2003-06-25 07:22:42 51°17.05 2°52.53 6.8 58 15.4 102200 79
2003-06-25 07:22:46 51°17.07 2°52.52 6.7 63 15.4 102200 79
2003-06-25 07:22:52 51°17.09 2°52.5 6.9 60 15.4 102210 79
2003-06-25 07:22:56 51°17.1 2°52.49 7.2 55 15.4 102210 79
2003-06-25 07:23:02 51°17.12 2°52.47 6.9 55 15.4 102210 78
2003-06-25 07:23:06 51°17.13 2°52.46 6.9 55 15.4 102210 78
2003-06-25 07:23:12 51°17.15 2°52.44 7 52 15.4 102210 78
2003-06-25 07:23:16 51°17.17 2°52.43 6.6 70 15.4 102210 78
2003-06-25 07:23:22 51°17.19 2°52.41 7.1 62 15.4 102210 78
2003-06-25 07:23:26 51°17.2 2°52.4 6.8 62 15.4 102210 78
2003-06-25 07:23:32 51°17.22 2°52.38 7 47 15.4 102210 79
2003-06-25 07:23:36 51°17.23 2°52.37 8.3 51 15.4 102210 79
2003-06-25 07:23:42 51°17.25 2°52.35 8.4 48 15.4 102210 79
2003-06-25 07:23:44 51°17.26 2°52.35 8.9 57 15.4 102210 79
2003-06-25 07:23:52 51°17.29 2°52.32 9 56 15.5 102210 79
2003-06-25 07:23:56 51°17.3 2°52.31 8.2 59 15.5 102210 79
2003-06-25 07:24:02 51°17.32 2°52.29 8.4 60 15.4 102210 78
2003-06-25 07:24:06 51°17.33 2°52.28 8.3 57 15.4 102210 78
2003-06-25 07:24:12 51°17.35 2°52.26 7.8 57 15.4 102200 78
2003-06-25 07:24:16 51°17.37 2°52.25 7.4 58 15.4 102200 78
2003-06-25 07:24:22 51°17.39 2°52.23 7 58 15.4 102210 78
2003-06-25 07:24:26 51°17.4 2°52.22 6.5 59 15.4 102210 78
2003-06-25 07:24:32 51°17.42 2°52.2 5.7 56 15.4 102200 78
2003-06-25 07:24:36 51°17.43 2°52.18 6.4 54 15.4 102200 78
2003-06-25 07:24:42 51°17.44 2°52.16 5.8 53 15.4 102210 78
2003-06-25 07:24:46 51°17.45 2°52.14 5.1 55 15.4 102210 78
2003-06-25 07:24:52 51°17.47 2°52.11 5.6 55 15.4 102210 78
2003-06-25 07:24:56 51°17.47 2°52.09 4.3 58 15.4 102210 78
2003-06-25 07:25:00 51°17.48 2°52.07 4.5 56 15.4 102210 78
2003-06-25 07:25:06 51°17.5 2°52.04 4.6 52 15.4 102210 78
2003-06-25 07:25:12 51°17.51 2°52.01 5.1 52 15.4 102220 78
2003-06-25 07:25:16 51°17.52 2°51.99 4.7 53 15.4 102220 78
2003-06-25 07:25:22 51°17.53 2°51.96 4.6 42 15.4 102220 78
2003-06-25 07:25:26 51°17.54 2°51.94 4.9 49 15.4 102220 78
2003-06-25 07:25:32 51°17.55 2°51.91 4.7 49 15.4 102220 78
2003-06-25 07:25:36 51°17.56 2°51.89 5.1 51 15.4 102220 78
2003-06-25 07:25:42 51°17.57 2°51.86 4.6 64 15.4 102220 78
2003-06-25 07:25:46 51°17.58 2°51.84 5 49 15.4 102220 78
2003-06-25 07:25:52 51°17.59 2°51.81 4.4 51 15.5 102220 78
2003-06-25 07:25:56 51°17.6 2°51.79 3.7 51 15.5 102220 78
2003-06-25 07:26:02 51°17.62 2°51.77 3.9 50 15.4 102220 78
2003-06-25 07:26:04 51°17.62 2°51.76 4.1 41 15.4 102220 78
2003-06-25 07:26:12 51°17.64 2°51.72 4.5 47 15.4 102220 77
2003-06-25 07:26:16 51°17.65 2°51.7 4.1 40 15.4 102220 77
2003-06-25 07:26:22 51°17.66 2°51.67 4.1 43 15.4 102230 78
2003-06-25 07:26:26 51°17.67 2°51.65 4.7 45 15.4 102230 78
2003-06-25 07:26:32 51°17.68 2°51.62 6 50 15.4 102230 78
2003-06-25 07:26:36 51°17.69 2°51.6 6.1 56 15.4 102230 78
2003-06-25 07:26:40 51°17.7 2°51.58 5.7 56 15.4 102230 78
2003-06-25 07:26:46 51°17.71 2°51.55 5.4 54 15.4 102230 78
2003-06-25 07:26:52 51°17.72 2°51.52 5.7 54 15.4 102220 78
2003-06-25 07:26:56 51°17.73 2°51.5 5.6 66 15.4 102220 78
2003-06-25 07:27:02 51°17.74 2°51.47 5.8 73 15.5 102220 78
2003-06-25 07:27:06 51°17.75 2°51.45 4.9 72 15.5 102220 78
2003-06-25 07:27:12 51°17.77 2°51.42 5.4 50 15.5 102220 78
2003-06-25 07:27:16 51°17.77 2°51.4 5.4 57 15.5 102220 78
2003-06-25 07:27:20 51°17.78 2°51.38 5.3 61 15.5 102220 78
2003-06-25 07:27:26 51°17.8 2°51.35 5.6 58 15.5 102220 78
2003-06-25 07:27:32 51°17.81 2°51.32 5.5 65 15.5 102220 78
2003-06-25 07:27:36 51°17.82 2°51.3 5.2 62 15.5 102220 78
2003-06-25 07:27:42 51°17.83 2°51.27 5.8 63 15.5 102210 78
2003-06-25 07:27:46 51°17.84 2°51.26 5.5 60 15.5 102210 78
2003-06-25 07:27:52 51°17.85 2°51.23 5 58 15.5 102210 79
2003-06-25 07:27:56 51°17.86 2°51.21 5.2 61 15.5 102210 79
2003-06-25 07:28:02 51°17.88 2°51.18 4.7 58 15.5 102220 78
2003-06-25 07:28:06 51°17.89 2°51.16 5.3 56 15.5 102220 78
2003-06-25 07:28:12 51°17.9 2°51.13 4.9 72 15.5 102220 78
2003-06-25 07:28:16 51°17.91 2°51.11 5.1 62 15.5 102220 78
2003-06-25 07:28:22 51°17.92 2°51.08 4.9 67 15.5 102220 78
2003-06-25 07:28:26 51°17.93 2°51.06 4.7 63 15.5 102220 78
2003-06-25 07:28:32 51°17.94 2°51.03 5 64 15.6 102210 78
2003-06-25 07:28:36 51°17.95 2°51.01 5.8 56 15.6 102210 78
2003-06-25 07:28:40 51°17.96 2°50.99 5.5 58 15.5 102220 78
2003-06-25 07:28:44 51°17.97 2°50.97 4.6 57 15.5 102220 78
2003-06-25 07:28:52 51°17.99 2°50.93 4.5 57 15.5 102210 78
2003-06-25 07:28:56 51°18 2°50.91 4 58 15.5 102210 78
2003-06-25 07:29:02 51°18.01 2°50.88 4.1 53 15.5 102210 78
2003-06-25 07:29:06 51°18.02 2°50.86 4.9 53 15.5 102210 78
2003-06-25 07:29:12 51°18.03 2°50.83 4.3 50 15.5 102220 77
2003-06-25 07:29:16 51°18.04 2°50.81 4.5 49 15.5 102220 77
2003-06-25 07:29:22 51°18.05 2°50.78 4.6 48 15.5 102220 77
2003-06-25 07:29:26 51°18.06 2°50.76 3.8 48 15.5 102220 77
2003-06-25 07:29:32 51°18.08 2°50.73 4.5 50 15.5 102210 77
2003-06-25 07:29:36 51°18.09 2°50.71 5.2 49 15.5 102210 77
2003-06-25 07:29:40 51°18.09 2°50.69 5 52 15.5 102210 77
2003-06-25 07:29:46 51°18.11 2°50.66 5.1 50 15.5 102210 77
2003-06-25 07:29:52 51°18.12 2°50.64 5.7 54 15.5 102220 77
2003-06-25 07:29:56 51°18.13 2°50.62 5.2 64 15.5 102220 77
2003-06-25 07:30:02 51°18.14 2°50.59 5.1 54 15.5 102220 77
2003-06-25 07:30:06 51°18.15 2°50.57 5.2 64 15.5 102220 77
2003-06-25 07:30:12 51°18.17 2°50.54 5.4 66 15.5 102210 78
2003-06-25 07:30:16 51°18.17 2°50.52 4.8 69 15.5 102210 78
2003-06-25 07:30:22 51°18.19 2°50.49 4.5 58 15.6 102220 78
2003-06-25 07:30:26 51°18.2 2°50.47 5.5 59 15.6 102220 78
2003-06-25 07:30:32 51°18.21 2°50.44 5.4 57 15.6 102220 78
2003-06-25 07:30:36 51°18.22 2°50.42 6 56 15.6 102220 78
2003-06-25 07:30:42 51°18.23 2°50.39 5 44 15.6 102220 78
2003-06-25 07:30:46 51°18.24 2°50.37 5 59 15.6 102220 78
2003-06-25 07:30:52 51°18.25 2°50.34 5.3 56 15.6 102210 78
2003-06-25 07:30:56 51°18.26 2°50.32 5.5 57 15.6 102210 78
2003-06-25 07:31:02 51°18.27 2°50.29 5.4 53 15.6 102210 78
2003-06-25 07:31:06 51°18.28 2°50.27 5 64 15.6 102210 78
2003-06-25 07:31:12 51°18.3 2°50.24 5.3 60 15.6 102210 78
2003-06-25 07:31:16 51°18.31 2°50.22 6.5 63 15.6 102210 78
2003-06-25 07:31:22 51°18.32 2°50.19 5.6 65 15.6 102210 79
2003-06-25 07:31:26 51°18.33 2°50.17 6 67 15.6 102210 79
2003-06-25 07:31:32 51°18.34 2°50.14 7.7 65 15.7 102210 79
2003-06-25 07:31:36 51°18.35 2°50.12 6.7 71 15.7 102210 79
2003-06-25 07:31:40 51°18.36 2°50.11 5.8 65 15.7 102210 78
2003-06-25 07:31:44 51°18.37 2°50.09 6.7 68 15.7 102210 78
2003-06-25 07:31:52 51°18.39 2°50.05 5.8 67 15.7 102210 78
2003-06-25 07:31:56 51°18.39 2°50.03 6.4 60 15.7 102210 78
2003-06-25 07:32:02 51°18.41 2°50 6.4 65 15.6 102220 78
2003-06-25 07:32:06 51°18.42 2°49.98 6.1 62 15.6 102220 78
2003-06-25 07:32:12 51°18.43 2°49.95 6.1 67 15.6 102210 78
2003-06-25 07:32:16 51°18.44 2°49.93 5.7 62 15.6 102210 78
2003-06-25 07:32:22 51°18.45 2°49.9 5.7 68 15.6 102210 78
2003-06-25 07:32:26 51°18.46 2°49.88 6.5 60 15.6 102210 78
2003-06-25 07:32:32 51°18.47 2°49.85 6.1 59 15.6 102220 77
2003-06-25 07:32:36 51°18.48 2°49.83 6.2 60 15.6 102220 77
2003-06-25 07:32:42 51°18.5 2°49.8 6.1 56 15.5 102210 77
2003-06-25 07:32:46 51°18.51 2°49.78 5.6 62 15.5 102210 77
2003-06-25 07:32:52 51°18.52 2°49.75 6.1 64 15.6 102220 78
2003-06-25 07:32:56 51°18.53 2°49.73 5.4 65 15.6 102220 78
2003-06-25 07:33:02 51°18.54 2°49.7 5.4 61 15.6 102210 77
2003-06-25 07:33:06 51°18.55 2°49.69 5.8 59 15.6 102210 77
2003-06-25 07:33:12 51°18.56 2°49.66 5.6 62 15.6 102220 78
2003-06-25 07:33:16 51°18.57 2°49.64 5 62 15.6 102220 78
2003-06-25 07:33:22 51°18.58 2°49.61 4.9 57 15.5 102220 77
2003-06-25 07:33:26 51°18.59 2°49.59 5.1 63 15.5 102220 77
2003-06-25 07:33:32 51°18.61 2°49.56 4.5 62 15.5 102210 77
2003-06-25 07:33:36 51°18.62 2°49.54 4.9 55 15.5 102210 77
2003-06-25 07:33:42 51°18.63 2°49.51 4.9 54 15.5 102220 77
2003-06-25 07:33:46 51°18.64 2°49.49 4.9 51 15.5 102220 77
2003-06-25 07:33:52 51°18.65 2°49.46 4.9 53 15.5 102210 77
2003-06-25 07:33:56 51°18.66 2°49.44 4.3 58 15.5 102210 77
2003-06-25 07:34:02 51°18.67 2°49.42 4.2 53 15.5 102220 77
2003-06-25 07:34:06 51°18.68 2°49.4 5 52 15.5 102220 77
2003-06-25 07:34:12 51°18.7 2°49.37 5 54 15.5 102220 77
2003-06-25 07:34:16 51°18.71 2°49.35 5.2 54 15.5 102220 77
2003-06-25 07:34:22 51°18.72 2°49.32 4.2 45 15.5 102220 77
2003-06-25 07:34:26 51°18.73 2°49.3 5.2 52 15.5 102220 77
2003-06-25 07:34:32 51°18.74 2°49.27 4.9 49 15.5 102220 77
2003-06-25 07:34:36 51°18.75 2°49.25 5.2 58 15.5 102220 77
2003-06-25 07:34:42 51°18.76 2°49.22 5.4 52 15.6 102210 77
2003-06-25 07:34:44 51°18.77 2°49.21 7.2 58 15.6 102210 77
2003-06-25 07:34:52 51°18.79 2°49.17 6.5 65 15.6 102210 77
2003-06-25 07:34:56 51°18.8 2°49.15 6.4 63 15.6 102210 77
2003-06-25 07:35:02 51°18.81 2°49.12 5.8 63 15.6 102220 77
2003-06-25 07:35:06 51°18.82 2°49.1 6 60 15.6 102220 77
2003-06-25 07:35:12 51°18.83 2°49.07 5.3 61 15.6 102220 78
2003-06-25 07:35:16 51°18.84 2°49.06 5.8 65 15.6 102220 78
2003-06-25 07:35:22 51°18.85 2°49.03 6.1 61 15.6 102210 77
2003-06-25 07:35:26 51°18.86 2°49.01 6 65 15.6 102210 77
2003-06-25 07:35:32 51°18.88 2°48.98 5.2 63 15.6 102210 77
2003-06-25 07:35:36 51°18.88 2°48.96 5.4 66 15.6 102210 77
2003-06-25 07:35:42 51°18.9 2°48.93 6 66 15.6 102210 78
2003-06-25 07:35:46 51°18.91 2°48.91 5.7 71 15.6 102210 78
2003-06-25 07:35:52 51°18.92 2°48.88 5.6 68 15.6 102210 78
2003-06-25 07:35:56 51°18.93 2°48.86 5.6 66 15.6 102210 78
2003-06-25 07:36:00 51°18.94 2°48.84 5.7 52 15.6 102220 78
2003-06-25 07:36:06 51°18.95 2°48.81 7.1 58 15.6 102220 78
2003-06-25 07:36:12 51°18.96 2°48.78 6.4 62 15.6 102210 78
2003-06-25 07:36:16 51°18.97 2°48.76 6.4 62 15.6 102210 78
2003-06-25 07:36:22 51°18.99 2°48.73 5.4 65 15.6 102210 78
2003-06-25 07:36:26 51°19 2°48.71 5.3 62 15.6 102210 78
2003-06-25 07:36:32 51°19.01 2°48.68 6.5 66 15.6 102200 78
2003-06-25 07:36:36 51°19.02 2°48.66 6.2 67 15.6 102200 78
2003-06-25 07:36:42 51°19.03 2°48.63 6.1 65 15.6 102200 78
2003-06-25 07:36:46 51°19.04 2°48.61 5.5 63 15.6 102200 78
2003-06-25 07:36:52 51°19.05 2°48.58 6.3 66 15.6 102210 78
2003-06-25 07:36:56 51°19.06 2°48.56 6.2 62 15.6 102210 78
2003-06-25 07:37:02 51°19.08 2°48.54 5.4 66 15.6 102200 78
2003-06-25 07:37:06 51°19.09 2°48.52 5.4 64 15.6 102200 78
2003-06-25 07:37:12 51°19.1 2°48.49 5.5 66 15.6 102210 78
2003-06-25 07:37:16 51°19.11 2°48.47 5.6 64 15.6 102210 78
2003-06-25 07:37:22 51°19.12 2°48.44 6.6 54 15.6 102210 78
2003-06-25 07:37:26 51°19.13 2°48.42 6.2 56 15.6 102210 78
2003-06-25 07:37:32 51°19.15 2°48.39 6 58 15.6 102210 78
2003-06-25 07:37:36 51°19.15 2°48.37 6 61 15.6 102210 78
2003-06-25 07:37:40 51°19.16 2°48.35 5.7 65 15.6 102210 78
2003-06-25 07:37:44 51°19.17 2°48.33 5.5 63 15.6 102210 78
2003-06-25 07:37:52 51°19.19 2°48.29 5.6 55 15.6 102210 78
2003-06-25 07:37:56 51°19.2 2°48.27 6 58 15.6 102210 78
2003-06-25 07:38:02 51°19.21 2°48.24 5.9 55 15.6 102210 77
2003-06-25 07:38:06 51°19.22 2°48.22 6.6 57 15.6 102210 77
2003-06-25 07:38:12 51°19.24 2°48.19 6 62 15.6 102210 78
2003-06-25 07:38:16 51°19.25 2°48.17 5.7 56 15.6 102210 78
2003-06-25 07:38:20 51°19.25 2°48.15 6.1 57 15.6 102210 78
2003-06-25 07:38:26 51°19.27 2°48.12 6.2 60 15.6 102210 78
2003-06-25 07:38:32 51°19.28 2°48.09 6 59 15.6 102200 77
2003-06-25 07:38:36 51°19.29 2°48.07 5.8 59 15.6 102200 77
2003-06-25 07:38:42 51°19.31 2°48.04 5.8 59 15.6 102210 78
2003-06-25 07:38:46 51°19.31 2°48.02 5.4 56 15.6 102210 78
2003-06-25 07:38:52 51°19.33 2°47.99 5.4 58 15.6 102200 78
2003-06-25 07:38:56 51°19.34 2°47.97 5.3 55 15.6 102200 78
2003-06-25 07:39:00 51°19.35 2°47.95 5.3 61 15.6 102210 78
2003-06-25 07:39:06 51°19.36 2°47.92 6.2 52 15.6 102210 78
2003-06-25 07:39:12 51°19.37 2°47.88 6.4 53 15.6 102210 78
2003-06-25 07:39:16 51°19.38 2°47.86 6.8 52 15.6 102210 78
2003-06-25 07:39:22 51°19.4 2°47.83 6.3 50 15.6 102210 78
2003-06-25 07:39:26 51°19.41 2°47.81 6.6 55 15.6 102210 78
2003-06-25 07:39:32 51°19.42 2°47.78 7.4 67 15.6 102200 78
2003-06-25 07:39:36 51°19.43 2°47.76 6.6 52 15.6 102200 78
2003-06-25 07:39:42 51°19.44 2°47.73 6.3 68 15.6 102200 78
2003-06-25 07:39:46 51°19.45 2°47.71 6.6 50 15.6 102200 78
2003-06-25 07:39:52 51°19.46 2°47.68 7.4 56 15.6 102200 78
2003-06-25 07:39:56 51°19.47 2°47.66 6.3 62 15.6 102200 78
2003-06-25 07:40:02 51°19.49 2°47.63 7 63 15.6 102200 78
2003-06-25 07:40:06 51°19.5 2°47.61 6.6 65 15.6 102200 78
2003-06-25 07:40:12 51°19.51 2°47.58 6.3 71 15.6 102200 78
2003-06-25 07:40:16 51°19.52 2°47.56 5.8 62 15.6 102200 78
2003-06-25 07:40:22 51°19.53 2°47.53 6.8 64 15.6 102200 78
2003-06-25 07:40:26 51°19.54 2°47.51 6.2 64 15.6 102200 78
2003-06-25 07:40:32 51°19.56 2°47.48 6.4 59 15.6 102210 78
2003-06-25 07:40:36 51°19.57 2°47.46 5.8 69 15.6 102210 78
2003-06-25 07:40:40 51°19.57 2°47.44 5.3 59 15.6 102210 78
2003-06-25 07:40:44 51°19.58 2°47.42 7.2 54 15.6 102210 78
2003-06-25 07:40:52 51°19.6 2°47.38 6.4 59 15.6 102200 78
2003-06-25 07:40:56 51°19.61 2°47.36 5.9 56 15.6 102200 78
2003-06-25 07:41:02 51°19.62 2°47.33 5.2 58 15.6 102200 78
2003-06-25 07:41:06 51°19.63 2°47.31 5.8 61 15.6 102200 78
2003-06-25 07:41:12 51°19.65 2°47.28 6.3 55 15.6 102190 78
2003-06-25 07:41:16 51°19.66 2°47.26 5.9 66 15.6 102190 78
2003-06-25 07:41:20 51°19.67 2°47.24 5.6 67 15.6 102200 77
2003-06-25 07:41:26 51°19.68 2°47.21 5.5 65 15.6 102200 77
2003-06-25 07:41:32 51°19.69 2°47.18 5.2 67 15.6 102210 77
2003-06-25 07:41:36 51°19.7 2°47.16 5.5 64 15.6 102210 77
2003-06-25 07:41:42 51°19.72 2°47.13 5.3 56 15.6 102200 77
2003-06-25 07:41:46 51°19.73 2°47.11 5.4 62 15.6 102200 77
2003-06-25 07:41:52 51°19.74 2°47.08 5 59 15.6 102200 77
2003-06-25 07:41:56 51°19.75 2°47.06 5.1 62 15.6 102200 77
2003-06-25 07:42:02 51°19.76 2°47.03 4.7 65 15.6 102200 77
2003-06-25 07:42:06 51°19.77 2°47 5.1 63 15.6 102200 77
2003-06-25 07:42:12 51°19.79 2°46.97 5.6 63 15.6 102210 77
2003-06-25 07:42:16 51°19.8 2°46.95 5.1 63 15.6 102210 77
2003-06-25 07:42:22 51°19.81 2°46.92 4.9 69 15.5 102210 77
2003-06-25 07:42:26 51°19.82 2°46.9 4.9 59 15.5 102210 77
2003-06-25 07:42:32 51°19.83 2°46.87 4.7 61 15.6 102200 77
2003-06-25 07:42:36 51°19.84 2°46.85 4.6 58 15.6 102200 77
2003-06-25 07:42:42 51°19.86 2°46.82 4.6 59 15.6 102200 77
2003-06-25 07:42:46 51°19.86 2°46.8 4.7 58 15.6 102200 77
2003-06-25 07:42:52 51°19.88 2°46.77 4.6 58 15.6 102210 77
2003-06-25 07:42:56 51°19.89 2°46.75 5.3 57 15.6 102210 77
2003-06-25 07:43:02 51°19.9 2°46.72 4.7 51 15.5 102210 76
2003-06-25 07:43:06 51°19.91 2°46.7 5.2 61 15.5 102210 76
2003-06-25 07:43:12 51°19.92 2°46.67 6 61 15.6 102210 77
2003-06-25 07:43:16 51°19.93 2°46.65 5.6 62 15.6 102210 77
2003-06-25 07:43:22 51°19.95 2°46.62 5.6 65 15.6 102210 77
2003-06-25 07:43:26 51°19.96 2°46.6 4.9 66 15.6 102210 77
2003-06-25 07:43:32 51°19.97 2°46.57 5.7 65 15.6 102210 77
2003-06-25 07:43:36 51°19.98 2°46.55 5.5 61 15.6 102210 77
2003-06-25 07:43:40 51°19.99 2°46.53 5.8 55 15.6 102210 77
2003-06-25 07:43:44 51°20 2°46.51 6.7 49 15.6 102210 77
2003-06-25 07:43:52 51°20.02 2°46.47 6.4 57 15.6 102210 77
2003-06-25 07:43:56 51°20.02 2°46.45 5.8 58 15.6 102210 77
2003-06-25 07:44:02 51°20.04 2°46.42 6.1 57 15.7 102210 78
2003-06-25 07:44:06 51°20.04 2°46.4 5.4 53 15.7 102210 78
2003-06-25 07:44:12 51°20.05 2°46.37 4.4 58 15.6 102200 77
2003-06-25 07:44:16 51°20.06 2°46.34 3.7 65 15.6 102200 77
2003-06-25 07:44:22 51°20.06 2°46.31 3.8 54 15.6 102210 77
2003-06-25 07:44:26 51°20.07 2°46.29 3.3 38 15.6 102210 77
2003-06-25 07:44:32 51°20.07 2°46.25 3.2 56 15.6 102210 77
2003-06-25 07:44:36 51°20.07 2°46.23 3.7 58 15.6 102210 77
2003-06-25 07:44:40 51°20.08 2°46.21 3.5 45 15.6 102220 77
2003-06-25 07:44:46 51°20.08 2°46.17 4.2 51 15.6 102220 77
2003-06-25 07:44:52 51°20.08 2°46.13 4.2 50 15.6 102220 77
2003-06-25 07:44:56 51°20.09 2°46.11 3.5 58 15.6 102220 77
2003-06-25 07:45:02 51°20.09 2°46.08 3.5 68 15.6 102210 77
2003-06-25 07:45:06 51°20.09 2°46.05 3 59 15.6 102210 77
2003-06-25 07:45:12 51°20.1 2°46.02 3.9 59 15.7 102220 77
2003-06-25 07:45:16 51°20.1 2°45.99 4 49 15.7 102220 77
2003-06-25 07:45:22 51°20.1 2°45.96 3.4 62 15.7 102220 77
2003-06-25 07:45:26 51°20.11 2°45.93 3.1 62 15.7 102220 77
2003-06-25 07:45:32 51°20.11 2°45.9 2.8 62 15.7 102220 77
2003-06-25 07:45:36 51°20.11 2°45.87 2.9 67 15.7 102220 77
2003-06-25 07:45:42 51°20.12 2°45.84 2.3 68 15.7 102210 77
2003-06-25 07:45:46 51°20.12 2°45.81 2.1 70 15.7 102210 77
2003-06-25 07:45:52 51°20.12 2°45.78 2.2 61 15.6 102210 76
2003-06-25 07:45:56 51°20.13 2°45.76 3.8 43 15.6 102210 76
2003-06-25 07:46:02 51°20.13 2°45.72 3.1 77 15.7 102220 76
2003-06-25 07:46:06 51°20.13 2°45.7 3.9 51 15.7 102220 76
2003-06-25 07:46:12 51°20.14 2°45.66 3.3 69 15.7 102220 76
2003-06-25 07:46:16 51°20.14 2°45.64 2.4 74 15.7 102220 76
2003-06-25 07:46:20 51°20.14 2°45.61 3.3 70 15.7 102220 77
2003-06-25 07:46:24 51°20.14 2°45.59 2.7 67 15.7 102220 77
2003-06-25 07:46:32 51°20.15 2°45.54 2.8 65 15.7 102210 77
2003-06-25 07:46:36 51°20.15 2°45.52 3.4 62 15.7 102210 77
2003-06-25 07:46:42 51°20.16 2°45.48 3.4 61 15.7 102220 76
2003-06-25 07:46:46 51°20.16 2°45.46 3.3 61 15.7 102220 76
2003-06-25 07:46:52 51°20.16 2°45.42 2.7 61 15.7 102210 76
2003-06-25 07:46:56 51°20.17 2°45.4 2.7 52 15.7 102210 76
2003-06-25 07:47:00 51°20.17 2°45.38 2.9 54 15.7 102210 75
2003-06-25 07:47:06 51°20.17 2°45.34 2.7 54 15.7 102210 75
2003-06-25 07:47:12 51°20.18 2°45.3 2.7 56 15.6 102220 75
2003-06-25 07:47:16 51°20.18 2°45.28 3.1 61 15.6 102220 75
2003-06-25 07:47:22 51°20.19 2°45.24 2.9 51 15.6 102220 75
2003-06-25 07:47:26 51°20.19 2°45.22 3.9 48 15.6 102220 75
2003-06-25 07:47:32 51°20.19 2°45.18 2.8 64 15.6 102210 75
2003-06-25 07:47:36 51°20.2 2°45.16 2.7 66 15.6 102210 75
2003-06-25 07:47:42 51°20.2 2°45.13 3 68 15.6 102210 75
2003-06-25 07:47:46 51°20.2 2°45.1 4.6 57 15.6 102210 75
2003-06-25 07:47:52 51°20.21 2°45.07 4.2 57 15.7 102210 76
2003-06-25 07:47:56 51°20.21 2°45.04 3.3 56 15.7 102210 76
2003-06-25 07:48:02 51°20.22 2°45.01 3.3 56 15.7 102220 76
2003-06-25 07:48:06 51°20.22 2°44.98 3.3 50 15.7 102220 76
2003-06-25 07:48:12 51°20.22 2°44.95 3.2 52 15.7 102210 76
2003-06-25 07:48:16 51°20.23 2°44.92 3 54 15.7 102210 76
2003-06-25 07:48:22 51°20.23 2°44.89 3.4 50 15.8 102220 77
2003-06-25 07:48:26 51°20.24 2°44.86 3.7 73 15.8 102220 77
2003-06-25 07:48:32 51°20.24 2°44.83 2.9 74 15.7 102210 76
2003-06-25 07:48:36 51°20.24 2°44.8 3.3 65 15.7 102210 76
2003-06-25 07:48:42 51°20.25 2°44.77 3.8 74 15.7 102210 76
2003-06-25 07:48:46 51°20.25 2°44.74 3.5 70 15.7 102210 76
2003-06-25 07:48:52 51°20.26 2°44.71 3.4 72 15.7 102220 76
2003-06-25 07:48:56 51°20.26 2°44.68 3.3 69 15.7 102220 76
2003-06-25 07:49:02 51°20.26 2°44.65 3.4 73 15.8 102210 76
2003-06-25 07:49:06 51°20.27 2°44.62 3.6 71 15.8 102210 76
2003-06-25 07:49:12 51°20.27 2°44.59 3.1 63 15.7 102210 76
2003-06-25 07:49:16 51°20.27 2°44.56 3.2 65 15.7 102210 76
2003-06-25 07:49:20 51°20.28 2°44.54 2.8 63 15.7 102200 75
2003-06-25 07:49:26 51°20.28 2°44.5 3.2 63 15.7 102200 75
2003-06-25 07:49:32 51°20.29 2°44.47 2.8 52 15.7 102210 75
2003-06-25 07:49:36 51°20.29 2°44.44 3.7 48 15.7 102210 75
2003-06-25 07:49:42 51°20.3 2°44.41 3.8 55 15.7 102210 75
2003-06-25 07:49:46 51°20.3 2°44.38 3.5 56 15.7 102210 75
2003-06-25 07:49:52 51°20.3 2°44.35 3.8 57 15.7 102210 74
2003-06-25 07:49:56 51°20.31 2°44.32 3.8 69 15.7 102210 74
2003-06-25 07:50:02 51°20.31 2°44.29 3.5 59 15.7 102210 75
2003-06-25 07:50:06 51°20.31 2°44.26 4 64 15.7 102210 75
2003-06-25 07:50:12 51°20.32 2°44.22 4.6 66 15.7 102210 75
2003-06-25 07:50:16 51°20.32 2°44.2 4.4 62 15.7 102210 75
2003-06-25 07:50:22 51°20.33 2°44.16 4.6 58 15.7 102200 75
2003-06-25 07:50:26 51°20.33 2°44.14 4 72 15.7 102200 75
2003-06-25 07:50:32 51°20.33 2°44.1 3.8 72 15.7 102210 75
2003-06-25 07:50:36 51°20.34 2°44.08 3.6 71 15.7 102210 75
2003-06-25 07:50:42 51°20.34 2°44.04 3.9 69 15.7 102200 76
2003-06-25 07:50:46 51°20.35 2°44.02 3 75 15.7 102200 76
2003-06-25 07:50:52 51°20.35 2°43.98 3.8 68 15.7 102210 75
2003-06-25 07:50:56 51°20.35 2°43.96 4.1 70 15.7 102210 75
2003-06-25 07:51:00 51°20.36 2°43.94 3.6 68 15.7 102210 75
2003-06-25 07:51:04 51°20.36 2°43.91 4.5 65 15.7 102210 75
2003-06-25 07:51:12 51°20.37 2°43.86 3.9 67 15.7 102210 75
2003-06-25 07:51:16 51°20.37 2°43.84 3.9 75 15.7 102210 75
2003-06-25 07:51:22 51°20.37 2°43.8 3.8 64 15.7 102200 76
2003-06-25 07:51:26 51°20.38 2°43.78 3.2 77 15.7 102200 76
2003-06-25 07:51:32 51°20.38 2°43.74 3.9 68 15.7 102210 75
2003-06-25 07:51:36 51°20.39 2°43.72 3.7 59 15.7 102210 75
2003-06-25 07:51:40 51°20.39 2°43.69 3.9 70 15.8 102200 76
2003-06-25 07:51:46 51°20.39 2°43.66 3.4 76 15.8 102200 76
2003-06-25 07:51:52 51°20.4 2°43.62 3.1 72 15.7 102210 75
2003-06-25 07:51:56 51°20.4 2°43.6 2.7 75 15.7 102210 75
2003-06-25 07:52:02 51°20.41 2°43.56 2.6 65 15.7 102210 75
2003-06-25 07:52:06 51°20.41 2°43.54 2.6 71 15.7 102210 75
2003-06-25 07:52:12 51°20.41 2°43.5 2.8 71 15.7 102210 75
2003-06-25 07:52:16 51°20.42 2°43.48 3 74 15.7 102210 75
2003-06-25 07:52:22 51°20.42 2°43.44 2.6 61 15.7 102210 75
2003-06-25 07:52:26 51°20.43 2°43.42 3.2 66 15.7 102210 75
2003-06-25 07:52:32 51°20.43 2°43.38 2.8 76 15.7 102210 75
2003-06-25 07:52:36 51°20.43 2°43.36 2.4 77 15.7 102210 75
2003-06-25 07:52:42 51°20.44 2°43.32 2.5 76 15.7 102210 75
2003-06-25 07:52:46 51°20.44 2°43.3 2.4 64 15.7 102210 75
2003-06-25 07:52:52 51°20.45 2°43.26 3 59 15.8 102200 76
2003-06-25 07:52:56 51°20.45 2°43.24 3 45 15.8 102200 76
2003-06-25 07:53:02 51°20.45 2°43.2 3 54 15.8 102210 75
2003-06-25 07:53:06 51°20.46 2°43.17 3 38 15.8 102210 75
2003-06-25 07:53:12 51°20.46 2°43.14 2.7 39 15.8 102210 75
2003-06-25 07:53:16 51°20.46 2°43.11 2.7 40 15.8 102210 75
2003-06-25 07:53:22 51°20.47 2°43.08 3.5 44 15.8 102210 75
2003-06-25 07:53:26 51°20.47 2°43.05 3.3 43 15.8 102210 75
2003-06-25 07:53:32 51°20.47 2°43.02 3.7 43 15.8 102210 75
2003-06-25 07:53:36 51°20.47 2°42.99 3.4 39 15.8 102210 75
2003-06-25 07:53:42 51°20.48 2°42.95 3.3 41 15.8 102210 75
2003-06-25 07:53:44 51°20.48 2°42.94 3.4 44 15.8 102210 75
2003-06-25 07:53:52 51°20.48 2°42.89 2.8 39 15.8 102210 75
2003-06-25 07:53:56 51°20.48 2°42.87 2.9 38 15.8 102210 75
2003-06-25 07:54:02 51°20.48 2°42.83 2.8 36 15.8 102210 75
2003-06-25 07:54:06 51°20.48 2°42.81 2.4 40 15.8 102210 75
2003-06-25 07:54:12 51°20.49 2°42.77 2.4 40 15.8 102200 74
2003-06-25 07:54:16 51°20.49 2°42.75 2.1 35 15.8 102200 74
2003-06-25 07:54:22 51°20.49 2°42.71 2.3 51 15.8 102200 74
2003-06-25 07:54:26 51°20.49 2°42.69 1.9 34 15.8 102200 74
2003-06-25 07:54:32 51°20.49 2°42.65 2.5 24 15.7 102210 74
2003-06-25 07:54:36 51°20.49 2°42.63 2.5 39 15.7 102210 74
2003-06-25 07:54:42 51°20.49 2°42.59 3.1 30 15.7 102200 74
2003-06-25 07:54:46 51°20.49 2°42.56 2.5 43 15.7 102200 74
2003-06-25 07:54:52 51°20.49 2°42.53 2.8 34 15.7 102210 74
2003-06-25 07:54:56 51°20.49 2°42.5 2.5 43 15.7 102210 74
2003-06-25 07:55:02 51°20.49 2°42.47 2.6 35 15.7 102200 75
2003-06-25 07:55:06 51°20.49 2°42.44 2.6 43 15.7 102200 75
2003-06-25 07:55:12 51°20.49 2°42.41 2.7 32 15.8 102200 75
2003-06-25 07:55:16 51°20.49 2°42.38 2.6 35 15.8 102200 75
2003-06-25 07:55:22 51°20.49 2°42.35 2.7 36 15.8 102200 75
2003-06-25 07:55:26 51°20.49 2°42.32 2.4 30 15.8 102200 75
2003-06-25 07:55:32 51°20.49 2°42.28 2.3 27 15.8 102210 75
2003-06-25 07:55:36 51°20.49 2°42.26 2.6 52 15.8 102210 75
2003-06-25 07:55:42 51°20.5 2°42.22 1.9 35 15.8 102200 75
2003-06-25 07:55:46 51°20.5 2°42.2 1.9 47 15.8 102200 75
2003-06-25 07:55:52 51°20.5 2°42.16 1.5 33 15.8 102200 75
2003-06-25 07:55:56 51°20.5 2°42.14 1.8 34 15.8 102200 75
2003-06-25 07:56:02 51°20.5 2°42.1 1.7 36 15.8 102200 75
2003-06-25 07:56:06 51°20.5 2°42.08 1.9 33 15.8 102200 75
2003-06-25 07:56:12 51°20.5 2°42.04 1.7 29 15.9 102190 75
2003-06-25 07:56:16 51°20.5 2°42.02 1.7 33 15.9 102190 75
2003-06-25 07:56:22 51°20.5 2°41.98 2 30 15.9 102210 75
2003-06-25 07:56:26 51°20.5 2°41.96 1.9 31 15.9 102210 75
2003-06-25 07:56:32 51°20.5 2°41.92 2.8 52 15.9 102200 75
2003-06-25 07:56:36 51°20.5 2°41.9 2.3 52 15.9 102200 75
2003-06-25 07:56:42 51°20.5 2°41.86 2.3 47 15.9 102200 75
2003-06-25 07:56:44 51°20.5 2°41.85 2.3 44 15.9 102200 75
2003-06-25 07:56:52 51°20.5 2°41.8 2.7 43 15.9 102210 75
2003-06-25 07:56:56 51°20.5 2°41.78 3 73 15.9 102210 75
2003-06-25 07:57:02 51°20.5 2°41.74 2.1 56 15.9 102200 75
2003-06-25 07:57:06 51°20.5 2°41.72 2.2 66 15.9 102200 75
2003-06-25 07:57:12 51°20.51 2°41.68 2.7 77 15.9 102200 76
2003-06-25 07:57:16 51°20.51 2°41.66 2.1 62 15.9 102200 76
2003-06-25 07:57:22 51°20.51 2°41.62 2.4 40 15.9 102200 76
2003-06-25 07:57:26 51°20.51 2°41.6 3.6 54 15.9 102200 76
2003-06-25 07:57:32 51°20.51 2°41.56 3.1 54 15.9 102200 76
2003-06-25 07:57:36 51°20.51 2°41.54 2.9 50 15.9 102200 76
2003-06-25 07:57:42 51°20.51 2°41.5 2.5 51 15.9 102200 76
2003-06-25 07:57:46 51°20.51 2°41.48 2.7 61 15.9 102200 76
2003-06-25 07:57:52 51°20.51 2°41.44 2.8 57 15.9 102200 76
2003-06-25 07:57:56 51°20.51 2°41.42 2.4 64 15.9 102200 76
2003-06-25 07:58:00 51°20.51 2°41.39 2.9 63 16 102190 76
2003-06-25 07:58:06 51°20.51 2°41.36 2.7 72 16 102190 76
2003-06-25 07:58:12 51°20.51 2°41.32 2.8 50 16 102200 75
2003-06-25 07:58:16 51°20.51 2°41.3 2.8 43 16 102200 75
2003-06-25 07:58:22 51°20.52 2°41.26 2.7 37 15.9 102200 75
2003-06-25 07:58:26 51°20.52 2°41.24 2.6 54 15.9 102200 75
2003-06-25 07:58:32 51°20.52 2°41.2 2.6 59 16 102200 76
2003-06-25 07:58:36 51°20.52 2°41.18 2.6 59 16 102200 76
2003-06-25 07:58:42 51°20.52 2°41.14 2.4 48 16 102200 76
2003-06-25 07:58:46 51°20.52 2°41.12 2.2 50 16 102200 76
2003-06-25 07:58:52 51°20.52 2°41.08 2.5 56 16 102200 76
2003-06-25 07:58:56 51°20.52 2°41.06 2.4 50 16 102200 76
2003-06-25 07:59:02 51°20.52 2°41.02 2.7 57 16 102190 76
2003-06-25 07:59:06 51°20.52 2°41 2.3 49 16 102190 76
2003-06-25 07:59:12 51°20.52 2°40.96 1.7 61 16 102200 76
2003-06-25 07:59:16 51°20.52 2°40.94 2.1 65 16 102200 76
2003-06-25 07:59:22 51°20.53 2°40.9 2.3 65 16 102200 76
2003-06-25 07:59:26 51°20.53 2°40.88 2.3 49 16 102200 76
2003-06-25 07:59:32 51°20.53 2°40.84 3.4 56 15.9 102200 76
2003-06-25 07:59:36 51°20.53 2°40.82 3 60 15.9 102200 76
2003-06-25 07:59:40 51°20.53 2°40.79 3.1 56 15.9 102200 76
2003-06-25 07:59:44 51°20.53 2°40.77 3 67 15.9 102200 76
2003-06-25 07:59:52 51°20.53 2°40.72 2.3 77 15.9 102200 76
2003-06-25 07:59:56 51°20.53 2°40.7 2.7 62 15.9 102200 76
2003-06-25 08:00:02 51°20.53 2°40.66 3.1 50 16 102200 76
2003-06-25 08:00:06 51°20.54 2°40.64 3.7 43 16 102200 76
2003-06-25 08:00:12 51°20.54 2°40.6 3.2 57 16 102200 76
2003-06-25 08:00:16 51°20.54 2°40.57 3.4 61 16 102200 76
2003-06-25 08:00:22 51°20.54 2°40.54 3.2 52 16 102200 76
2003-06-25 08:00:26 51°20.54 2°40.51 3.8 51 16 102200 76
2003-06-25 08:00:32 51°20.54 2°40.48 3.4 43 15.9 102200 76
2003-06-25 08:00:36 51°20.54 2°40.45 3.6 38 15.9 102200 76
2003-06-25 08:00:42 51°20.54 2°40.42 3.2 32 15.9 102200 76
2003-06-25 08:00:46 51°20.54 2°40.39 3.8 72 15.9 102200 76
2003-06-25 08:00:52 51°20.54 2°40.36 3.2 77 15.9 102200 76
2003-06-25 08:00:56 51°20.54 2°40.33 3.7 74 15.9 102200 76
2003-06-25 08:01:02 51°20.54 2°40.3 3.2 68 15.9 102200 76
2003-06-25 08:01:06 51°20.54 2°40.27 3.5 76 15.9 102200 76
2003-06-25 08:01:12 51°20.55 2°40.24 2.9 74 15.9 102200 76
2003-06-25 08:01:16 51°20.55 2°40.21 3.4 74 15.9 102200 76
2003-06-25 08:01:22 51°20.55 2°40.17 3.9 46 15.9 102200 76
2003-06-25 08:01:26 51°20.55 2°40.15 3.6 54 15.9 102200 76
2003-06-25 08:01:32 51°20.55 2°40.11 2.9 58 15.9 102200 76
2003-06-25 08:01:36 51°20.55 2°40.09 2.7 52 15.9 102200 76
2003-06-25 08:01:42 51°20.54 2°40.05 3 40 15.9 102200 77
2003-06-25 08:01:46 51°20.54 2°40.03 2.7 17 15.9 102200 77
2003-06-25 08:01:52 51°20.54 2°40 2.6 19 15.9 102200 77
2003-06-25 08:01:56 51°20.53 2°39.98 2.2 1 15.9 102200 77
2003-06-25 08:02:02 51°20.52 2°39.94 2.4 350 15.8 102190 77
2003-06-25 08:02:06 51°20.51 2°39.92 2.4 337 15.8 102190 77
2003-06-25 08:02:12 51°20.5 2°39.9 2.6 339 15.8 102190 77
2003-06-25 08:02:16 51°20.49 2°39.88 2.7 339 15.9 102200 77
2003-06-25 08:02:22 51°20.48 2°39.85 2.6 334 15.9 102200 77
2003-06-25 08:02:26 51°20.47 2°39.83 2.5 341 15.9 102200 77
2003-06-25 08:02:32 51°20.45 2°39.81 2.3 326 15.9 102200 77
2003-06-25 08:02:36 51°20.44 2°39.79 2.3 334 15.9 102200 77
2003-06-25 08:02:42 51°20.43 2°39.76 2.5 325 15.9 102200 77
2003-06-25 08:02:46 51°20.42 2°39.74 2.4 321 15.9 102200 77
2003-06-25 08:02:52 51°20.41 2°39.71 2.4 42 15.9 102200 77
2003-06-25 08:02:56 51°20.4 2°39.7 2.3 329 15.9 102190 77
2003-06-25 08:03:02 51°20.38 2°39.67 2.3 331 15.9 102200 77
2003-06-25 08:03:06 51°20.37 2°39.65 2.1 341 15.9 102200 77
2003-06-25 08:03:12 51°20.36 2°39.62 2.3 332 15.9 102200 77
2003-06-25 08:03:16 51°20.35 2°39.6 1.9 341 15.9 102200 77
2003-06-25 08:03:22 51°20.34 2°39.57 2 332 15.9 102200 77
2003-06-25 08:03:26 51°20.33 2°39.55 2.3 338 15.9 102200 77
2003-06-25 08:03:32 51°20.31 2°39.53 2.1 347 15.9 102200 77
2003-06-25 08:03:36 51°20.3 2°39.51 1.9 335 15.9 102200 77
2003-06-25 08:03:42 51°20.29 2°39.48 2.4 358 16 102190 77
2003-06-25 08:03:46 51°20.28 2°39.46 2.1 350 16 102190 77
2003-06-25 08:03:52 51°20.27 2°39.43 2.3 339 16 102190 77
2003-06-25 08:03:56 51°20.26 2°39.41 2.4 331 16 102200 77
2003-06-25 08:04:02 51°20.24 2°39.39 2.1 345 16 102200 77
2003-06-25 08:04:06 51°20.23 2°39.37 2.1 330 16 102200 77
2003-06-25 08:04:12 51°20.22 2°39.34 2.3 339 16 102200 77
2003-06-25 08:04:16 51°20.21 2°39.32 1.9 332 16 102200 77
2003-06-25 08:04:22 51°20.19 2°39.29 2 333 16 102200 77
2003-06-25 08:04:26 51°20.19 2°39.27 1.6 344 16 102200 77
2003-06-25 08:04:32 51°20.17 2°39.25 2 322 16.1 102200 77
2003-06-25 08:04:36 51°20.16 2°39.23 2.3 331 16.1 102200 77
2003-06-25 08:04:42 51°20.15 2°39.2 2.9 318 16.1 102200 77
2003-06-25 08:04:46 51°20.14 2°39.18 3.1 43 16.1 102200 77
2003-06-25 08:04:52 51°20.12 2°39.15 3 317 16.1 102200 77
2003-06-25 08:04:56 51°20.12 2°39.13 3.2 310 16.1 102200 77
2003-06-25 08:05:02 51°20.1 2°39.11 2.9 317 16.1 102200 77
2003-06-25 08:05:06 51°20.09 2°39.09 3.1 307 16.1 102200 77
2003-06-25 08:05:12 51°20.08 2°39.06 2.9 318 16.1 102200 77
2003-06-25 08:05:16 51°20.07 2°39.04 3.6 317 16.1 102200 77
2003-06-25 08:05:22 51°20.05 2°39.01 3.3 311 16.2 102200 77
2003-06-25 08:05:26 51°20.05 2°38.99 3 316 16.2 102200 77
2003-06-25 08:05:32 51°20.03 2°38.96 3.5 308 16.2 102200 77
2003-06-25 08:05:36 51°20.02 2°38.94 3.4 314 16.2 102200 77
2003-06-25 08:05:42 51°20.01 2°38.92 3.4 328 16.2 102200 77
2003-06-25 08:05:46 51°20 2°38.9 4.1 312 16.2 102200 77
2003-06-25 08:05:52 51°19.98 2°38.87 4.1 328 16.2 102200 77
2003-06-25 08:05:56 51°19.98 2°38.85 4.7 330 16.2 102200 77
2003-06-25 08:06:02 51°19.96 2°38.82 3.8 42 16.3 102200 77
2003-06-25 08:06:06 51°19.95 2°38.8 4 311 16.3 102200 77
2003-06-25 08:06:12 51°19.94 2°38.77 3.8 315 16.3 102200 77
2003-06-25 08:06:16 51°19.93 2°38.75 4.4 312 16.3 102190 77
2003-06-25 08:06:22 51°19.92 2°38.73 4.3 310 16.3 102200 77
2003-06-25 08:06:26 51°19.91 2°38.71 4.5   16.3 102200 77
2003-06-25 08:06:32 51°19.89 2°38.68 4.2 316 16.3 102200 76
2003-06-25 08:06:36 51°19.88 2°38.66 4.4 306 16.3 102200 76
2003-06-25 08:06:42 51°19.87 2°38.63 4.5 306 16.3 102190 76
2003-06-25 08:06:46 51°19.86 2°38.61 4.1 311 16.3 102190 76
2003-06-25 08:06:52 51°19.85 2°38.58 4.3 305 16.3 102190 76
2003-06-25 08:06:56 51°19.84 2°38.57 3.8 304 16.3 102200 76
2003-06-25 08:07:02 51°19.82 2°38.54 4.8 302 16.3 102200 75
2003-06-25 08:07:06 51°19.81 2°38.52 4.4 306 16.3 102200 75
2003-06-25 08:07:12 51°19.8 2°38.49 4.3 313 16.3 102200 75
2003-06-25 08:07:16 51°19.79 2°38.47 4.3 300 16.3 102200 75
2003-06-25 08:07:22 51°19.78 2°38.44 3.9 303 16.3 102200 75
2003-06-25 08:07:26 51°19.77 2°38.43 3.1 306 16.3 102200 75
2003-06-25 08:07:32 51°19.75 2°38.4 4.1 303 16.3 102200 75
2003-06-25 08:07:36 51°19.74 2°38.38 3.4 306 16.3 102200 75
2003-06-25 08:07:42 51°19.73 2°38.35 3.4 302 16.3 102200 74
2003-06-25 08:07:46 51°19.72 2°38.33 3.3 298 16.3 102200 74
2003-06-25 08:07:52 51°19.71 2°38.3 3.5 295 16.3 102200 74
2003-06-25 08:07:56 51°19.7 2°38.28 2.6 306 16.3 102200 74
2003-06-25 08:08:02 51°19.68 2°38.26 3.1 305 16.3 102200 74
2003-06-25 08:08:06 51°19.67 2°38.24 2.7 42 16.3 102200 74
2003-06-25 08:08:12 51°19.66 2°38.21 2.3 314 16.3 102200 74
2003-06-25 08:08:16 51°19.65 2°38.19 2.9 320 16.3 102200 74
2003-06-25 08:08:22 51°19.64 2°38.16 2.5 311 16.3 102200 74
2003-06-25 08:08:26 51°19.63 2°38.14 3.2 303 16.3 102200 74
2003-06-25 08:08:32 51°19.61 2°38.12 3.1 308 16.3 102200 74
2003-06-25 08:08:36 51°19.6 2°38.1 3.8 310 16.3 102200 74
2003-06-25 08:08:42 51°19.59 2°38.07 3.7 298 16.3 102200 74
2003-06-25 08:08:46 51°19.58 2°38.05 3.3 300 16.3 102200 74
2003-06-25 08:08:52 51°19.56 2°38.03 3.7 301 16.4 102200 74
2003-06-25 08:08:56 51°19.55 2°38.01 3.2 294 16.4 102200 74
2003-06-25 08:09:02 51°19.54 2°37.98 3.9 290 16.4 102200 74
2003-06-25 08:09:06 51°19.53 2°37.96 3.4 296 16.4 102200 74
2003-06-25 08:09:12 51°19.52 2°37.94 3.5 292 16.4 102200 74
2003-06-25 08:09:16 51°19.51 2°37.92 3.7 294 16.4 102200 74
2003-06-25 08:09:22 51°19.49 2°37.89 3.3 299 16.4 102190 74
2003-06-25 08:09:26 51°19.48 2°37.87 3.5   16.4 102190 74
2003-06-25 08:09:32 51°19.47 2°37.85 3.2 290 16.4 102200 73
2003-06-25 08:09:36 51°19.46 2°37.83 3.3 300 16.4 102200 73
2003-06-25 08:09:42 51°19.45 2°37.8 3.6 305 16.4 102200 73
2003-06-25 08:09:46 51°19.44 2°37.78 2.9 287 16.4 102200 73
2003-06-25 08:09:52 51°19.42 2°37.76 3 294 16.4 102200 73
2003-06-25 08:09:56 51°19.41 2°37.74 2.7 289 16.4 102200 73
2003-06-25 08:10:02 51°19.4 2°37.71 3.1 306 16.4 102200 73
2003-06-25 08:10:06 51°19.39 2°37.69 2.5 291 16.4 102200 73
2003-06-25 08:10:12 51°19.38 2°37.67 3.2 294 16.4 102200 73
2003-06-25 08:10:16 51°19.37 2°37.65 2.5 293 16.4 102200 73
2003-06-25 08:10:22 51°19.35 2°37.62 2.8 295 16.5 102190 73
2003-06-25 08:10:26 51°19.34 2°37.6 2.5 296 16.5 102190 73
2003-06-25 08:10:32 51°19.33 2°37.58 2.5 291 16.5 102200 73
2003-06-25 08:10:36 51°19.32 2°37.56 2.3 288 16.5 102200 73
2003-06-25 08:10:42 51°19.31 2°37.53 2.2 295 16.5 102190 73
2003-06-25 08:10:46 51°19.3 2°37.51 2.7 284 16.5 102190 73
2003-06-25 08:10:52 51°19.28 2°37.49 2.1 284 16.5 102190 73
2003-06-25 08:10:56 51°19.27 2°37.47 2.6 296 16.5 102200 73
2003-06-25 08:11:02 51°19.26 2°37.44 1.8 303 16.5 102200 73
2003-06-25 08:11:06 51°19.25 2°37.42 2.6 301 16.5 102200 73
2003-06-25 08:11:12 51°19.23 2°37.4 2.1 306 16.5 102200 72
2003-06-25 08:11:16 51°19.23 2°37.38 2.7 285 16.5 102200 72
2003-06-25 08:11:22 51°19.21 2°37.35 2.2 320 16.5 102200 72
2003-06-25 08:11:26 51°19.2 2°37.33 3.3 313 16.5 102200 72
2003-06-25 08:11:32 51°19.19 2°37.31 3 42 16.6 102190 72
2003-06-25 08:11:36 51°19.18 2°37.29 4 296 16.6 102190 72
2003-06-25 08:11:42 51°19.16 2°37.26 3 301 16.6 102200 72
2003-06-25 08:11:46 51°19.16 2°37.24 4 297 16.6 102200 72
2003-06-25 08:11:52 51°19.14 2°37.22 3.9 291 16.6 102190 72
2003-06-25 08:11:56 51°19.13 2°37.2 3.9 293 16.6 102190 72
2003-06-25 08:12:02 51°19.12 2°37.17 3 301 16.6 102200 72
2003-06-25 08:12:06 51°19.11 2°37.15 3.7 299 16.6 102200 72
2003-06-25 08:12:12 51°19.09 2°37.13 2.1 303 16.6 102190 73
2003-06-25 08:12:16 51°19.08 2°37.11 2.5 296 16.6 102190 73
2003-06-25 08:12:22 51°19.07 2°37.08 2.9 305 16.6 102190 72
2003-06-25 08:12:26 51°19.06 2°37.07 3.2   16.6 102190 72
2003-06-25 08:12:32 51°19.05 2°37.04 3.4 293 16.6 102190 72
2003-06-25 08:12:36 51°19.04 2°37.02 3.8 297 16.6 102190 72
2003-06-25 08:12:42 51°19.02 2°36.99 3.4 299 16.6 102190 72
2003-06-25 08:12:48 51°19.01 2°36.97 2.7 294 16.6 102190 72
2003-06-25 08:12:52 51°19 2°36.95 2.9 282 16.6 102190 72
2003-06-25 08:12:56 51°18.99 2°36.93 2.6 286 16.6 102190 72
2003-06-25 08:13:00 51°18.98 2°36.91 3.2 287 16.7 102190 72
2003-06-25 08:13:04 51°18.97 2°36.89 2.3 281 16.7 102190 72
2003-06-25 08:13:12 51°18.95 2°36.86 3 284 16.7 102190 72
2003-06-25 08:13:16 51°18.94 2°36.84 2.5 278 16.7 102190 72
2003-06-25 08:13:22 51°18.93 2°36.81 2.6 277 16.7 102190 72
2003-06-25 08:13:28 51°18.92 2°36.79 2.2 278 16.7 102190 72
2003-06-25 08:13:32 51°18.91 2°36.77 2.4 275 16.7 102190 72
2003-06-25 08:13:36 51°18.9 2°36.75 1.7 275 16.7 102190 72
2003-06-25 08:13:42 51°18.88 2°36.72 3 269 16.7 102190 71
2003-06-25 08:13:46 51°18.87 2°36.71 1.8 276 16.7 102190 71
2003-06-25 08:13:52 51°18.86 2°36.68 2.6 284 16.7 102190 71
2003-06-25 08:13:56 51°18.85 2°36.66 2.4 277 16.7 102190 71
2003-06-25 08:14:02 51°18.84 2°36.63 2.8 276 16.7 102190 71
2003-06-25 08:14:08 51°18.82 2°36.61 1.7 280 16.7 102190 71
2003-06-25 08:14:12 51°18.81 2°36.59 2.3 282 16.7 102190 71
2003-06-25 08:14:16 51°18.8 2°36.57 2.2 325 16.6 102190 71
2003-06-25 08:14:22 51°18.79 2°36.55 2.9 323 16.7 102190 71
2003-06-25 08:14:28 51°18.78 2°36.52 2.7 313 16.7 102190 71
2003-06-25 08:14:32 51°18.77 2°36.5 2.7 305 16.7 102190 71
2003-06-25 08:14:36 51°18.76 2°36.48 2.9 304 16.7 102190 71
2003-06-25 08:14:42 51°18.74 2°36.46 2.6 313 16.7 102180 72
2003-06-25 08:14:48 51°18.73 2°36.43 2.6 319 16.7 102180 72
2003-06-25 08:14:52 51°18.72 2°36.41 2.2 321 16.7 102180 72
2003-06-25 08:14:56 51°18.71 2°36.39 2.9 310 16.8 102190 72
2003-06-25 08:15:00 51°18.7 2°36.38 2.1 318 16.8 102190 72
2003-06-25 08:15:08 51°18.68 2°36.34 2.9 317 16.7 102190 72
2003-06-25 08:15:12 51°18.67 2°36.33 3.8 311 16.7 102190 72
2003-06-25 08:15:16 51°18.66 2°36.31 3.9 296 16.7 102190 72
2003-06-25 08:15:20 51°18.65 2°36.3 4.9 299 16.7 102200 72
2003-06-25 08:15:28 51°18.62 2°36.27 4.6 300 16.7 102200 72
2003-06-25 08:15:32 51°18.61 2°36.26 7.2 298 16.7 102200 72
2003-06-25 08:15:36 51°18.6 2°36.26 7.9 309 16.8 102190 72
2003-06-25 08:15:42 51°18.57 2°36.25 8.9 309 16.8 102190 72
2003-06-25 08:15:48 51°18.55 2°36.24 8.9 310 16.8 102190 72
2003-06-25 08:15:52 51°18.54 2°36.24 8.7 313 16.8 102190 72
2003-06-25 08:15:56 51°18.52 2°36.25 7.9 313 16.8 102190 72
2003-06-25 08:16:02 51°18.5 2°36.25 9.1 42 16.8 102190 72
2003-06-25 08:16:06 51°18.49 2°36.26 9.9 315 16.8 102190 72
2003-06-25 08:16:12 51°18.47 2°36.27 9 318 16.8 102180 72
2003-06-25 08:16:16 51°18.45 2°36.28 10.2 329 16.8 102180 72
2003-06-25 08:16:22 51°18.43 2°36.3 11.8 329 16.8 102170 72
2003-06-25 08:16:28 51°18.41 2°36.32 11 335 16.8 102170 72
2003-06-25 08:16:32 51°18.4 2°36.33 11.6 331 16.8 102170 72
2003-06-25 08:16:36 51°18.39 2°36.35 11.5 335 16.8 102170 72
2003-06-25 08:16:40 51°18.38 2°36.37 11.5 331 16.8 102160 72
2003-06-25 08:16:48 51°18.36 2°36.4 11.7 334 16.8 102160 72
2003-06-25 08:16:52 51°18.35 2°36.42 12.3 335 16.8 102160 72
2003-06-25 08:16:56 51°18.33 2°36.44 11.9 335 16.8 102160 72
2003-06-25 08:17:02 51°18.32 2°36.47 11.5 335 16.7 102160 72
2003-06-25 08:17:06 51°18.31 2°36.49 11.5 333 16.7 102160 72
2003-06-25 08:17:12 51°18.29 2°36.52 11.4 337 16.7 102160 72
2003-06-25 08:17:16 51°18.28 2°36.54 11.3 331 16.7 102160 72
2003-06-25 08:17:22 51°18.27 2°36.56 11.9 335 16.7 102150 72
2003-06-25 08:17:28 51°18.25 2°36.59 11.3 335 16.7 102150 72
2003-06-25 08:17:32 51°18.24 2°36.61 11.5 338 16.7 102160 72
2003-06-25 08:17:36 51°18.23 2°36.63 13.1 335 16.7 102160 72
2003-06-25 08:17:40 51°18.22 2°36.65 12.9 333 16.7 102160 72
2003-06-25 08:17:48 51°18.2 2°36.69 13.3 342 16.7 102160 72
2003-06-25 08:17:52 51°18.19 2°36.71 13.5 337 16.7 102160 72
2003-06-25 08:17:56 51°18.18 2°36.73 13.1 336 16.7 102160 72
2003-06-25 08:18:02 51°18.16 2°36.76 12.3 331 16.7 102160 72
2003-06-25 08:18:08 51°18.15 2°36.79 11.9 332 16.7 102160 72
2003-06-25 08:18:12 51°18.14 2°36.81 12.1 330 16.7 102170 72
2003-06-25 08:18:16 51°18.13 2°36.82 12.3 332 16.7 102170 72